ROMMA est une association bénévole à but non lucratif. Votre soutien est indispensable : ADHERER à ROMMA ou FAIRE un DON

Le Versoud - (38, Isère)

Vallée du Grésivaudan (220 m)   Longitude: 05° 51' 44" E   Latitude: 45° 13' 06" N Station partenaire n°6
 

Détail journalier du     <<     >>

Température Humidité Pression Vent Dir Rafale Dir. rafale Ensol.
Heure (°C) (%) (hPa) (km/h) (km/h) (min)
01:00 8.489101600---0
02:00 8.191101700---0
03:00 7.492101700---0
04:00 6.892101600---0
05:00 6.393101700---0
06:00 6.394101700---0
07:00 6.494101700---0
08:00 6.494101600---0
09:00 7.594101600---0
10:00 8.891101603E0
11:00 9.888101705E0
12:00 11.978101608N0
13:00 12.0801016013O0
14:00 13.274101506ONO0
15:00 13.97310141NE10NNO0
16:00 14.86710142NNE13NNE5
17:00 15.46410131NE11NE0
18:00 15.766101302NE0
19:00 14.477101300---0
20:00 13.283101400---0
21:00 12.784101402NE0
22:00 12.287101400---0
23:00 12.487101406NE0
minuit 12.388101508NE0

Graphique du 04-10-2019

 

Serveur OMMA